Location: Lecco
(45.8566°N, 9.3977°E)
Time: 06:15:30
(UTC+02:00)

Altair - Pass Details

Date: 23 August 2020
Orbit: 1501 x 1682 km, 47.2° (Epoch: 25 September)

Event Time Altitude Azimuth Distance (km) Brightness Sun altitude
Rises 03:42:50 0° 274° (W) 4,836 - -25.0°
Reaches altitude 10° 03:45:59 10° 275° (W) 3,826 - -24.6°
Exits shadow 03:46:18 11° 275° (W) 3,729 9.2 -24.6°
Maximum altitude 03:55:44 83° 4° (N) 1,575 7.5 -23.6°
Drops below altitude 10° 04:05:07 10° 93° (E) 3,688 10.0 -22.5°
Sets 04:08:06 0° 95° (E) 4,655 10.6 -22.1°
